Change the Weather History Date:

Wednesday, August 7, 2013

  Actual Average Record
Temperature  
Mean Temperature 67 °F -  
Max Temperature 80 °F 80 °F 80 °F (1996)
Min Temperature 54 °F 64 °F 53 °F (2004)
Cooling Degree Days 2    
Growing Degree Days 17 (Base 50)    
Moisture  
Dew Point 52 °F    
Average Humidity 63    
Maximum Humidity 94    
Minimum Humidity 19    
Precipitation  
Precipitation 0.00 in 0.03 in - ()
Sea Level Pressure  
Sea Level Pressure 30.00 in    
Wind  
Wind Speed 5 mph ()    
Max Wind Speed 16 mph    
Max Gust Speed -    
Visibility 7.7 miles    
Events      
Averages and records for this station are not official NWS values.
T = Trace of Precipitation, MM = Missing Value Source: Averaged Metar Reports

Daily Weather History Graph

Daily Weather History Graph

Search for Another Location

Airport or City:

Trip Planner

Search our weather history database for the weather conditions in past years. The results will help you decide how hot, cold, wet, or windy it might be!

Date:

Astronomy

Aug. 07, 2013 Rise Set
Actual Time 6:39 AM AEST 6:06 PM AEST
Civil Twilight 6:17 AM AEST 6:28 PM AEST
Nautical Twilight 5:51 AM AEST 6:54 PM AEST
Astronomical Twilight 5:25 AM AEST 7:20 PM AEST
Moon 6:29 AM AEST (8/7) 6:22 PM AEST (8/7)
Length of Visible Light 12h 11m
Length of Day
11h 26m
New Moon, 0% of the Moon is Illuminated
Aug 7
New Moon
Aug 14
First Quarter
Aug 21
Full
Aug 28
Last Quarter
Sep 5
New

Hourly Weather History & Observations

Time (AEST) Temp. Dew Point Humidity Pressure Visibility Wind Dir Wind Speed Gust Speed Precip Events Conditions
12:00 AM 60 °F 54 °F 76% 30.06 in - South 4.6 mph - -  
12:00 AM 60.8 °F 55.4 °F 82% 30.04 in - South 4.6 mph - N/A   Clear
12:30 AM 59.0 °F 53.6 °F 82% 30.04 in - West 3.5 mph - N/A   Clear
1:00 AM 59 °F 54 °F 79% 30.05 in - SSW 3.5 mph - -  
1:00 AM 59.0 °F 53.6 °F 82% 30.04 in - SSW 3.5 mph - N/A   Clear
1:30 AM 57.2 °F 53.6 °F 88% 30.04 in - WNW 1.2 mph - N/A   Clear
2:00 AM 57.2 °F 53.6 °F 88% 30.01 in - WSW 4.6 mph - N/A   Clear
2:30 AM 55.4 °F 53.6 °F 94% 30.01 in - Calm Calm - N/A   Clear
3:00 AM 55 °F 54 °F 94% 30.01 in - West 3.5 mph - -  
3:00 AM 55.4 °F 53.6 °F 94% 30.01 in - West 3.5 mph - N/A   Clear
3:30 AM 57.2 °F 53.6 °F 88% 30.01 in - SSW 4.6 mph - N/A   Clear
4:00 AM 55 °F 53 °F 91% 30.01 in - WNW 3.5 mph - -  
4:00 AM 55.4 °F 53.6 °F 94% 30.01 in - WNW 3.5 mph - N/A   Clear
4:30 AM 55.4 °F 53.6 °F 94% 30.01 in - West 3.5 mph - N/A   Clear
5:00 AM 55.4 °F 53.6 °F 94% 30.01 in - WNW 4.6 mph - N/A   Clear
5:30 AM 55.4 °F 53.6 °F 94% 30.01 in - WSW 2.3 mph - N/A   Clear
6:00 AM 56 °F 53 °F 86% 30.03 in 19 mi WNW 3.5 mph - -   Partly Cloudy
6:00 AM 55.4 °F 53.6 °F 94% 30.01 in 6.2 mi WNW 3.5 mph - N/A   Partly Cloudy
6:30 AM 55.4 °F 51.8 °F 88% 30.01 in 6.2 mi North 3.5 mph - N/A   Partly Cloudy
7:00 AM 57 °F 53 °F 80% 30.05 in - NW 4.6 mph - -  
7:00 AM 57.2 °F 51.8 °F 82% 30.04 in 6.2 mi NW 4.6 mph - N/A   Partly Cloudy
7:30 AM 60.8 °F 51.8 °F 72% 30.04 in 6.2 mi South 5.8 mph - N/A   Partly Cloudy
8:00 AM 62.6 °F 55.4 °F 77% 30.06 in 6.2 mi WNW 4.6 mph - N/A   Partly Cloudy
8:30 AM 66.2 °F 53.6 °F 64% 30.06 in 6.2 mi SSW 4.6 mph - N/A   Partly Cloudy
9:00 AM 70 °F 55 °F 49% 30.07 in 19 mi SE 6.9 mph - -   Partly Cloudy
9:00 AM 69.8 °F 55.4 °F 60% 30.06 in 6.2 mi SE 6.9 mph - N/A   Partly Cloudy
9:30 AM 75.2 °F 53.6 °F 47% 30.06 in 6.2 mi SE 11.5 mph - N/A   Partly Cloudy
10:00 AM 75 °F 54 °F 37% 30.08 in - South 9.2 mph - -  
10:00 AM 75.2 °F 53.6 °F 47% 30.06 in 6.2 mi South 9.2 mph - N/A   Partly Cloudy
10:30 AM 75.2 °F 53.6 °F 47% 30.06 in - SSE 9.2 mph - N/A   Clear
11:00 AM 77.0 °F 53.6 °F 44% 30.04 in - South 10.4 mph - N/A   Clear
11:30 AM 78.8 °F 53.6 °F 42% 30.04 in - SE 11.5 mph - N/A   Clear
12:00 PM 79 °F 51 °F 27% 30.03 in 25 mi SE 10.4 mph - -   Partly Cloudy
12:00 PM 78.8 °F 50.0 °F 36% 30.01 in 6.2 mi SE 10.4 mph - N/A   Partly Cloudy
12:30 PM 78.8 °F 50.0 °F 36% 30.01 in 6.2 mi SE 9.2 mph - N/A   Partly Cloudy
1:00 PM 79 °F 48 °F 23% 30.00 in - ESE 11.5 mph - -  
1:00 PM 78.8 °F 48.2 °F 34% 29.98 in 6.2 mi ESE 11.5 mph - N/A   Partly Cloudy
1:30 PM 78.8 °F 42.8 °F 28% 29.98 in 6.2 mi SE 12.7 mph - N/A   Partly Cloudy
2:00 PM 80.6 °F 39.2 °F 23% 29.95 in 6.2 mi East 15.0 mph - N/A   Partly Cloudy
2:30 PM 80.6 °F 44.6 °F 28% 29.95 in 6.2 mi East 16.1 mph - N/A   Partly Cloudy
3:00 PM 79 °F 44 °F 19% 29.94 in 25 mi East 15.0 mph - -   Partly Cloudy
3:00 PM 78.8 °F 44.6 °F 30% 29.92 in - East 15.0 mph - N/A   Clear
3:30 PM 78.8 °F 46.4 °F 32% 29.92 in - East 15.0 mph - N/A   Clear
4:00 PM 78 °F 47 °F 23% 29.95 in - East 13.8 mph - -  
4:00 PM 77.0 °F 46.4 °F 34% 29.92 in - East 13.8 mph - N/A   Clear
4:30 PM 77.0 °F 44.6 °F 32% 29.92 in - East 10.4 mph - N/A   Clear
5:00 PM 75.2 °F 46.4 °F 36% 29.95 in - ESE 10.4 mph - N/A   Clear
5:30 PM 73.4 °F 48.2 °F 41% 29.95 in - ESE 8.1 mph - N/A   Clear
6:00 PM 71 °F 48 °F 33% 29.96 in - SE 9.2 mph - -  
6:00 PM 71.6 °F 48.2 °F 43% 29.95 in - SE 9.2 mph - N/A   Clear
6:30 PM 68.0 °F 50.0 °F 52% 29.95 in - SSE 4.6 mph - N/A   Clear
7:00 PM 66 °F 53 °F 53% 29.98 in - SSE 1.2 mph - -  
7:00 PM 66.2 °F 53.6 °F 64% 29.98 in - SSE 1.2 mph - N/A   Clear
7:30 PM 66.2 °F 53.6 °F 64% 29.98 in - SSE 4.6 mph - N/A   Clear
8:00 PM 62.6 °F 53.6 °F 72% 29.98 in - SSE 1.2 mph - N/A   Clear
8:30 PM 60.8 °F 53.6 °F 77% 29.98 in - SSE 2.3 mph - N/A   Clear
9:00 PM 60 °F 54 °F 76% 30.00 in - Calm Calm - -  
9:00 PM 59.0 °F 55.4 °F 88% 29.98 in - Calm Calm - N/A   Clear
9:30 PM 60.8 °F 53.6 °F 77% 29.98 in - Calm Calm - N/A   Clear
10:00 PM 58 °F 54 °F 83% 30.01 in - Calm Calm - -  
10:00 PM 57.2 °F 53.6 °F 88% 29.98 in - Calm Calm - N/A   Clear
10:30 PM 57.2 °F 53.6 °F 88% 29.98 in - Calm Calm - N/A   Clear
11:00 PM 59.0 °F 53.6 °F 82% 29.98 in - West 4.6 mph - N/A   Clear
11:30 PM 57.2 °F 53.6 °F 88% 29.98 in - WNW 1.2 mph - N/A   Clear